Date,TemperatureHighF,TemperatureAvgF,TemperatureLowF,DewpointHighF,DewpointAvgF,DewpointLowF,HumidityHigh,HumidityAvg,HumidityLow,PressureMaxIn,PressureMinIn,WindSpeedMaxMPH,WindSpeedAvgMPH,GustSpeedMaxMPH,PrecipitationSumIn
2013-9-1,90.4,78.6,71.5,77.7,72.8,69.7,97,83,62,29.69,29.57,1,0,8,0.01
2013-9-2,89.0,78.9,70.6,75.6,72.2,69.4,97,81,56,29.67,29.58,1,0,5,0.01
2013-9-3,85.7,76.9,71.0,76.6,72.5,69.5,95,87,69,29.74,29.58,1,0,5,0.01
2013-9-4,82.2,73.3,67.2,69.7,65.2,60.3,97,77,59,29.91,29.74,1,0,4,0.00
2013-9-5,86.9,74.6,63.8,67.3,63.8,58.4,96,72,40,29.89,29.82,1,0,4,0.00
2013-9-6,79.6,70.9,61.0,64.9,60.6,55.3,86,71,53,30.00,29.88,1,0,4,0.00
2013-9-7,81.1,69.6,57.3,65.6,61.3,55.6,96,77,55,29.94,29.77,0,0,4,0.00
2013-9-8,86.4,75.0,63.8,69.5,64.9,58.8,95,73,45,29.80,29.70,0,0,3,0.00
2013-9-9,83.2,76.0,71.0,73.4,70.3,66.6,94,83,69,29.96,29.79,1,0,6,0.00
2013-9-10,89.2,78.7,69.8,73.9,71.2,68.3,96,79,57,30.03,29.93,1,0,5,0.00
2013-9-11,91.4,80.1,70.6,73.0,69.1,65.9,91,71,45,29.99,29.86,1,0,8,0.00
2013-9-12,90.3,79.6,69.6,75.1,70.9,66.8,92,76,56,29.86,29.58,1,0,7,0.00
2013-9-13,81.8,74.0,63.9,69.2,63.5,56.2,88,71,49,29.72,29.54,1,0,6,0.00
2013-9-14,70.6,61.6,56.4,56.1,51.3,47.3,83,70,48,29.89,29.72,2,0,5,0.00
2013-9-15,78.8,73.4,67.5,60.5,58.8,53.8,77,62,44,29.97,29.92,0,0,4,0.00
2013-9-16,83.3,71.4,62.7,70.3,63.8,58.5,95,78,49,30.01,29.86,1,0,5,0.00
2013-9-17,71.9,62.6,54.1,58.5,54.2,50.4,95,76,50,30.16,30.01,1,0,5,0.00
2013-9-18,71.8,58.7,45.6,54.6,50.3,44.2,96,76,49,30.13,29.98,0,0,4,0.00
2013-9-19,74.5,64.7,54.1,61.0,56.7,51.7,94,77,57,30.01,29.89,0,0,5,0.00
2013-9-20,78.5,69.6,63.3,66.8,63.0,59.3,94,80,62,29.90,29.77,1,0,3,0.00
2013-9-21,72.8,67.8,64.2,69.3,65.8,62.5,98,94,88,29.78,29.52,1,0,9,0.21
2013-9-22,74.6,67.1,58.4,66.0,60.3,54.9,98,81,53,29.71,29.53,2,0,5,0.10
2013-9-23,68.6,60.5,53.2,55.7,52.3,49.8,90,76,57,29.89,29.71,1,0,5,0.00
2013-9-24,73.8,63.0,53.4,59.5,54.4,50.3,93,75,56,29.92,29.75,0,0,4,0.00
2013-9-25,73.1,63.0,51.9,61.7,56.2,50.5,96,80,59,29.78,29.68,0,0,2,0.00
2013-9-26,75.2,65.6,58.0,60.5,57.5,53.0,94,77,47,29.86,29.69,1,0,5,0.00
2013-9-27,71.4,61.5,51.5,62.0,55.5,50.1,97,82,60,30.01,29.86,1,0,7,0.00
2013-9-28,69.6,60.1,50.0,58.6,54.6,48.9,97,83,65,30.07,29.99,1,0,5,0.00
2013-9-29,72.5,62.0,51.3,59.9,55.7,50.2,100,81,55,29.99,29.84,1,0,3,0.00
2013-9-30,74.1,62.5,51.7,61.5,55.1,50.3,98,79,52,29.91,29.80,0,0,3,0.00